Regional Weather Roundup
Issued by NWS Nashville, TN

Home | Current Version | Previous Version | Text Only | Print | Product List | Glossary On
Versions: 1 2 3 4 5 6 7 8 9 10 11 12 13 14 15 16 17 18 19 20 21 22 23 24 25 26 27 28 29 30 31 32 33 34 35 36 37 38 39 40 41 42 43 44 45 46 47 48 49 50
000
ASUS44 KOHX 260710
RWROHX
MIDDLE TENNESSEE HOURLY WEATHER ROUNDUP
NATIONAL WEATHER SERVICE NASHVILLE TN
200 AM CDT FRI MAY 26 2017

NOTE: "FAIR" INDICATES FEW OR NO CLOUDS BELOW 12,000 FEET WITH
NO SIGNIFICANT WEATHER AND/OR OBSTRUCTIONS TO VISIBILITY.

* THESE REPORTS ARE NOT UNDER NWS QUALITY CONTROL AND MAY NOT
  REPORT WEATHER SUCH AS PRECIPITATION AND FOG.


TNZ005>011-023>034-057-059-062>066-078-080-260800
...NORTHERN MIDDLE TENNESSEE...

CITY           SKY/WX    TMP DP  RH WIND       PRES   REMARKS
CLARKSVILLE    PTCLDY    56  52  86 CALM      29.88R
CROSSVILLE     CLEAR     51  49  92 CALM      29.94S
GALLATIN       CLEAR     54  52  94 CALM      29.93R
DICKSON        CLEAR     56  52  86 S6        29.89R
LEBANON        CLEAR     53  51  93 CALM      29.89R
NASHVILLE      CLEAR     56  52  86 S5        29.91R
PORTLAND       CLEAR     57  52  82 S7        29.89R
SMYRNA         PTCLDY    55  52  89 SE5       29.92R
SPARTA         PTCLDY    52  50  93 CALM      29.91S
SPRINGFIELD    CLEAR     57  54  88 CALM      29.89R
WEST NASHVILLE CLEAR     55  54  94 CALM      29.88R
$$
TNZ056-058-060-061-075>077-079-093>097-260800
...SOUTHERN MIDDLE TENNESSEE...

CITY           SKY/WX    TMP DP  RH WIND       PRES   REMARKS
COLUMBIA       CLEAR     55  54  94 CALM      29.89S
FAYETTEVILLE   CLEAR     57  52  82 SE3       29.93R
MCMINNVILLE    CLEAR     52  52 100 CALM      29.92F
PULASKI        CLEAR     52  52 100 CALM      29.92R
SHELBYVILLE    CLEAR     54  52  94 E3        29.92R
TULLAHOMA      CLEAR     52  48  87 CALM      29.94S
$$


...KEY TO REMARKS...
VSB - VISIBILITY IN MILES
WCI - WIND CHILL INDEX
HX  - HEAT INDEX




USA.gov is the U.S. government's official web portal to all federal, state and local government web resources and services.